Weather History for Fort Sevcenko, Kazakhstan

Change the Weather History Date:

Saturday, January 19, 2013

  Actual Average Record
Temperature  
Mean Temperature 29 °F -  
Max Temperature 37 °F - - ()
Min Temperature 21 °F - - ()
Degree Days  
Heating Degree Days 36    
Moisture  
Dew Point 23 °F    
Average Humidity 88    
Maximum Humidity 100    
Minimum Humidity 60    
Precipitation  
Precipitation 0.00 in - - ()
Sea Level Pressure  
Sea Level Pressure 30.04 in    
Wind  
Wind Speed 6 mph ()    
Max Wind Speed 16 mph    
Max Gust Speed -    
Visibility 6.0 miles    
Events Fog    
T = Trace of Precipitation, MM = Missing Value Source: Averaged Metar Reports

Daily Weather History Graph

Daily Weather History Graph

Search for Another Location

Airport:

Trip Planner

Search our weather history database for the weather conditions in past years. The results will help you decide how hot, cold, wet, or windy it might be!

Date:

Astronomy

Jan. 19, 2013 Rise Set
Actual Time 9:04 AM AQTT 6:28 PM AQTT
Civil Twilight 8:32 AM AQTT 7:00 PM AQTT
Nautical Twilight 7:57 AM AQTT 7:35 PM AQTT
Astronomical Twilight 7:23 AM AQTT 8:10 PM AQTT
Moon 12:45 PM AQTT (1/19) 2:11 AM AQTT (1/19)
Length of Visible Light 10h 27m
Length of Day
9h 24m
First Quarter, 53% of the Moon is Illuminated
Jan 19
First Quarter
Jan 27
Full
Feb 3
Last Quarter
Feb 10
New
Feb 18
First Quarter

Hourly Weather History & Observations

Time (AQTT) Temp. Windchill Dew Point Humidity Pressure Visibility Wind Dir Wind Speed Gust Speed Precip Events Conditions
12:00 AM 23.0 °F 17.1 °F 23.0 °F 100% 30.04 in 0.4 mi North 4.5 mph - N/A Fog Light Freezing Fog
12:30 AM 23.0 °F 17.1 °F 23.0 °F 100% 30.04 in 3.7 mi NNE 4.5 mph - N/A   Scattered Clouds
1:00 AM 23.0 °F 14.9 °F 23.0 °F 100% 30.04 in - NE 6.7 mph - N/A   Clear
1:30 AM 23.0 °F 17.1 °F 23.0 °F 100% 30.04 in - West 4.5 mph - N/A   Clear
2:00 AM 25 °F - 21 °F 78% 29.90 in 6 mi NNE 4.5 mph - -   Clear
2:00 AM 23.0 °F 17.1 °F 23.0 °F 100% 30.04 in - NW 4.5 mph - N/A   Clear
2:30 AM 23.0 °F 17.1 °F 21.2 °F 93% 30.04 in - NNE 4.5 mph - N/A   Clear
3:00 AM 23.0 °F 17.1 °F 21.2 °F 93% 30.04 in - NNW 4.5 mph - N/A   Clear
3:30 AM 23.0 °F 17.1 °F 21.2 °F 93% 30.04 in - North 4.5 mph - N/A   Clear
4:00 AM 21.2 °F 12.7 °F 19.4 °F 93% 30.04 in - NE 6.7 mph - N/A   Clear
4:30 AM 21.2 °F 15.0 °F 19.4 °F 93% 30.06 in - ENE 4.5 mph - N/A   Clear
5:00 AM 24 °F - 22 °F 86% 30.05 in 6 mi NE 2.2 mph - -   Mist
5:00 AM 19.4 °F 12.9 °F 19.4 °F 100% 30.04 in - ENE 4.5 mph - N/A   Clear
5:30 AM 19.4 °F 10.6 °F 19.4 °F 100% 30.04 in - ENE 6.7 mph - N/A   Clear
6:00 AM 19.4 °F 12.9 °F 19.4 °F 100% 30.04 in - NE 4.5 mph - N/A   Clear
6:30 AM 19.4 °F 12.9 °F 19.4 °F 100% 30.04 in - ENE 4.5 mph - N/A   Clear
7:00 AM 19.4 °F 12.9 °F 17.6 °F 93% 30.04 in - East 4.5 mph - N/A   Clear
7:30 AM 19.4 °F 12.9 °F 17.6 °F 93% 30.06 in - ESE 4.5 mph - N/A   Clear
8:00 AM 24 °F - 21 °F 85% 30.04 in 6 mi NNE 2.2 mph - -   Mist
8:00 AM 19.4 °F 12.9 °F 17.6 °F 93% 30.06 in 6.2 mi East 4.5 mph - N/A   Scattered Clouds
8:30 AM 19.4 °F 8.8 °F 17.6 °F 93% 30.06 in 6.2 mi East 8.9 mph - N/A   Partly Cloudy
9:00 AM 19.4 °F 8.8 °F 17.6 °F 93% 30.06 in 6.2 mi East 8.9 mph - N/A   Partly Cloudy
9:30 AM 19.4 °F 8.8 °F 17.6 °F 93% 30.06 in 6.2 mi ESE 8.9 mph - N/A   Partly Cloudy
10:00 AM 19.4 °F 10.6 °F 17.6 °F 93% 30.09 in 6.2 mi ESE 6.7 mph - N/A   Partly Cloudy
10:30 AM 19.4 °F 7.4 °F 19.4 °F 100% 30.09 in 6.2 mi ESE 11.2 mph - N/A   Partly Cloudy
11:00 AM 32 °F - 27 °F 75% 30.07 in 6 mi NE 4.5 mph - -   Overcast
11:00 AM 21.2 °F 11.0 °F 19.4 °F 93% 30.09 in - ESE 8.9 mph - N/A   Clear
11:30 AM 23.0 °F 11.9 °F 21.2 °F 93% 30.09 in 6.2 mi East 11.2 mph - N/A   Scattered Clouds
12:00 PM 23.0 °F 11.9 °F 21.2 °F 93% 30.09 in 6.2 mi ESE 11.2 mph - N/A   Scattered Clouds
12:30 PM 26.6 °F 16.4 °F 23.0 °F 86% 30.06 in 6.2 mi ESE 11.2 mph - N/A   Scattered Clouds
1:00 PM 28.4 °F 19.9 °F 23.0 °F 80% 30.06 in 6.2 mi SE 8.9 mph - N/A   Scattered Clouds
1:30 PM 28.4 °F 19.9 °F 23.0 °F 80% 30.06 in 6.2 mi ESE 8.9 mph - N/A   Scattered Clouds
2:00 PM 37 °F - 28 °F 60% 30.05 in 6 mi NNE 6.7 mph - -   Clear
2:00 PM 30.2 °F 22.1 °F 24.8 °F 80% 30.06 in 6.2 mi SE 8.9 mph - N/A   Scattered Clouds
2:30 PM 30.2 °F 22.1 °F 24.8 °F 80% 30.04 in 6.2 mi ESE 8.9 mph - N/A   Scattered Clouds
3:00 PM 32.0 °F 24.3 °F 24.8 °F 75% 30.04 in 6.2 mi ESE 8.9 mph - N/A   Scattered Clouds
3:30 PM 32.0 °F 25.7 °F 24.8 °F 75% 30.04 in 6.2 mi East 6.7 mph - N/A   Scattered Clouds
4:00 PM 32.0 °F 24.3 °F 24.8 °F 75% 30.04 in 6.2 mi ESE 8.9 mph - N/A   Mostly Cloudy
4:30 PM 32.0 °F 24.3 °F 24.8 °F 75% 30.04 in 6.2 mi ESE 8.9 mph - N/A   Mostly Cloudy
5:00 PM 33 °F - 28 °F 73% 30.03 in 6 mi NW 2.2 mph - -   Clear
5:00 PM 33.8 °F 27.9 °F 24.8 °F 70% 30.04 in 6.2 mi SE 6.7 mph - N/A   Mostly Cloudy
5:30 PM 33.8 °F 26.5 °F 26.6 °F 75% 30.01 in 6.2 mi East 8.9 mph - N/A   Scattered Clouds
6:00 PM 32.0 °F 25.7 °F 26.6 °F 80% 30.01 in 6.2 mi ESE 6.7 mph - N/A   Mostly Cloudy
6:30 PM 30.2 °F 23.5 °F 26.6 °F 86% 30.01 in 6.2 mi ESE 6.7 mph - N/A   Mostly Cloudy
7:00 PM 30.2 °F 23.5 °F 26.6 °F 86% 30.04 in 6.2 mi ESE 6.7 mph - N/A   Scattered Clouds
7:30 PM 28.4 °F 19.9 °F 26.6 °F 93% 30.01 in 6.2 mi East 8.9 mph - N/A   Scattered Clouds
8:00 PM 31 °F - 27 °F 77% 30.01 in 6 mi East 2.2 mph - -   Clear
8:00 PM 28.4 °F 18.7 °F 24.8 °F 86% 30.01 in 6.2 mi East 11.2 mph - N/A   Scattered Clouds
8:30 PM 28.4 °F 17.6 °F 24.8 °F 86% 30.01 in 6.2 mi East 13.4 mph - N/A   Scattered Clouds
9:00 PM 26.6 °F 15.3 °F 24.8 °F 93% 30.01 in 6.2 mi East 13.4 mph - N/A   Scattered Clouds
9:30 PM 26.6 °F 15.3 °F 24.8 °F 93% 30.01 in 6.2 mi East 13.4 mph - N/A   Scattered Clouds
10:00 PM 26.6 °F 16.4 °F 24.8 °F 93% 30.01 in 6.2 mi East 11.2 mph - N/A   Scattered Clouds
10:30 PM 26.6 °F 16.4 °F 24.8 °F 93% 30.01 in 6.2 mi East 11.2 mph - N/A   Mostly Cloudy
11:00 PM 32 °F - 27 °F 74% 30.03 in 6 mi North 4.5 mph - -   Clear
11:00 PM 26.6 °F 15.3 °F 24.8 °F 93% 30.01 in 6.2 mi East 13.4 mph - N/A   Mostly Cloudy
11:30 PM 26.6 °F 14.4 °F 24.8 °F 93% 29.98 in 6.2 mi East 15.7 mph - N/A   Mostly Cloudy